Savannah Hunter, GA

4:23 AM EDT on May 23, 2017 (GMT -0400)
Hunter Army Air Field

Weather History for KSVN - September, 2013

Change the Weather History Date:

Sunday, September 22, 2013

  Actual Average Record
Temperature  
Mean Temperature 72 °F -  
Max Temperature 75 °F 81 °F 89 °F (2005)
Min Temperature 68 °F 66 °F 60 °F (1999)
Cooling Degree Days 7    
Growing Degree Days 22 (Base 50)    
Moisture  
Dew Point 71 °F    
Average Humidity 93    
Maximum Humidity 100    
Minimum Humidity 78    
Precipitation  
Precipitation 0.09 in - - ()
Sea Level Pressure  
Sea Level Pressure 29.76 in    
Wind  
Wind Speed 5 mph (WNW)    
Max Wind Speed 9 mph    
Max Gust Speed -    
Visibility 10 miles    
Events Rain    
Averages and records for this station are not official NWS values.
T = Trace of Precipitation, MM = Missing Value Source: NWS Daily Summary

Daily Weather History Graph

Daily Weather History Graph

Search for Another Location

Airport or City:

Trip Planner

Search our weather history database for the weather conditions in past years. The results will help you decide how hot, cold, wet, or windy it might be!

Date:

Astronomy

Sep. 22, 2013 Rise Set
Actual Time 7:12 AM EDT 7:20 PM EDT
Civil Twilight 6:48 AM EDT 7:45 PM EDT
Nautical Twilight 6:20 AM EDT 8:13 PM EDT
Astronomical Twilight 5:51 AM EDT 8:42 PM EDT
Moon 9:24 PM EDT (9/22) 10:17 AM EDT (9/22)
Length of Visible Light 12h 56m
Length of Day
12h 07m
Waning Gibbous, 89% of the Moon is Illuminated
Sep 22
Waning Gibbous
Sep 26
Last Quarter
Oct 4
New
Oct 11
First Quarter
Oct 18
Full

Hourly Weather History & Observations

Time (EDT) Temp. Dew Point Humidity Pressure Visibility Wind Dir Wind Speed Gust Speed Precip Events Conditions
12:58 AM 74.7 °F 71.8 °F 91% 29.75 in 10.0 mi SSW 6.9 mph - N/A   Partly Cloudy
1:58 AM 74.8 °F 72.7 °F 93% 29.75 in 10.0 mi SW 4.6 mph - N/A   Scattered Clouds
2:03 AM 75.2 °F 73.4 °F 94% 29.74 in 10.0 mi SSW 4.6 mph - N/A   Mostly Cloudy
2:28 AM 75.2 °F 73.4 °F 94% 29.73 in 10.0 mi SW 4.6 mph - N/A   Scattered Clouds
2:37 AM 75.2 °F 73.4 °F 94% 29.73 in 10.0 mi SW 4.6 mph - N/A   Light Drizzle
2:58 AM 74.7 °F 73.2 °F 95% 29.74 in 10.0 mi SW 3.5 mph - 0.00 in   Light Drizzle
3:02 AM 75.2 °F 73.4 °F 94% 29.73 in 10.0 mi SW 2.3 mph - N/A   Partly Cloudy
3:22 AM 75.2 °F 73.4 °F 94% 29.72 in 10.0 mi Variable 3.5 mph - N/A   Mostly Cloudy
3:47 AM 75.2 °F 73.4 °F 94% 29.72 in 10.0 mi SW 6.9 mph - N/A   Mostly Cloudy
3:58 AM 74.5 °F 73.0 °F 95% 29.73 in 10.0 mi SW 5.8 mph - 0.00 in   Partly Cloudy
4:33 AM 75.2 °F 73.4 °F 94% 29.71 in 10.0 mi SW 5.8 mph - N/A   Mostly Cloudy
4:48 AM 75.2 °F 73.4 °F 94% 29.71 in 10.0 mi WSW 5.8 mph - N/A   Mostly Cloudy
4:58 AM 74.3 °F 72.9 °F 95% 29.72 in 10.0 mi SSW 3.5 mph - N/A   Mostly Cloudy
5:58 AM 73.9 °F 72.5 °F 95% 29.73 in 10.0 mi West 5.8 mph - N/A   Mostly Cloudy
6:43 AM 73.4 °F 71.6 °F 94% 29.73 in 10.0 mi WSW 5.8 mph - N/A   Mostly Cloudy
6:58 AM 73.4 °F 72.1 °F 96% 29.74 in 10.0 mi WSW 4.6 mph - N/A   Scattered Clouds
7:12 AM 73.4 °F 71.6 °F 94% 29.73 in 10.0 mi West 4.6 mph - N/A   Light Drizzle
7:53 AM 73.4 °F 73.4 °F 100% 29.74 in 10.0 mi WSW 4.6 mph - N/A   Partly Cloudy
7:58 AM 73.4 °F 72.7 °F 98% 29.75 in 10.0 mi WSW 4.6 mph - 0.00 in   Scattered Clouds
8:07 AM 73.4 °F 73.4 °F 100% 29.74 in 10.0 mi WSW 4.6 mph - N/A   Light Drizzle
8:12 AM 73.4 °F 73.4 °F 100% 29.75 in 10.0 mi WSW 3.5 mph - N/A   Light Drizzle
8:24 AM 73.4 °F 73.4 °F 100% 29.75 in 10.0 mi WSW 4.6 mph - N/A   Mostly Cloudy
8:44 AM 73.4 °F 73.4 °F 100% 29.75 in 10.0 mi WSW 4.6 mph - N/A   Overcast
8:49 AM 73.4 °F 73.4 °F 100% 29.75 in 10.0 mi WSW 4.6 mph - N/A   Overcast
8:58 AM 73.9 °F 73.0 °F 97% 29.76 in 10.0 mi West 4.6 mph - 0.01 in   Overcast
9:18 AM 73.4 °F 73.4 °F 100% 29.75 in 10.0 mi WNW 5.8 mph - N/A   Overcast
9:37 AM 73.4 °F 71.6 °F 94% 29.75 in 10.0 mi WNW 6.9 mph - N/A   Light Drizzle
9:54 AM 75.2 °F 73.4 °F 94% 29.76 in 10.0 mi NW 6.9 mph - N/A   Overcast
9:58 AM 74.5 °F 72.9 °F 95% 29.77 in 10.0 mi NW 5.8 mph - 0.00 in   Overcast
10:03 AM 75.2 °F 73.4 °F 94% 29.76 in 10.0 mi NW 5.8 mph - N/A   Overcast
10:18 AM 73.4 °F 71.6 °F 94% 29.77 in 10.0 mi North 9.2 mph - N/A   Overcast
10:29 AM 73.4 °F 69.8 °F 88% 29.77 in 10.0 mi North 6.9 mph - N/A   Light Drizzle
10:45 AM 73.4 °F 69.8 °F 88% 29.77 in 10.0 mi NNE 6.9 mph - N/A   Overcast
10:49 AM 73.4 °F 69.8 °F 88% 29.77 in 10.0 mi NNE 5.8 mph - N/A Rain Light Rain
10:54 AM 73.4 °F 71.6 °F 94% 29.77 in 10.0 mi NNE 5.8 mph - N/A Rain Light Rain
10:58 AM 73.2 °F 71.1 °F 93% 29.79 in 9.0 mi NNE 4.6 mph - 0.00 in Rain Light Rain
11:08 AM 73.4 °F 71.6 °F 94% 29.78 in 6.0 mi North 8.1 mph - N/A Rain Rain
11:58 AM 71.4 °F 70.0 °F 95% 29.78 in 8.0 mi North 8.1 mph - 0.06 in Rain Light Rain
12:08 PM 71.6 °F 69.8 °F 94% 29.77 in 10.0 mi North 6.9 mph - N/A Rain Light Rain
12:23 PM 71.6 °F 69.8 °F 94% 29.77 in 10.0 mi Variable 4.6 mph - N/A   Light Drizzle
12:32 PM 71.6 °F 69.8 °F 94% 29.77 in 10.0 mi Variable 5.8 mph - N/A   Overcast
12:53 PM 71.6 °F 69.8 °F 94% 29.77 in 10.0 mi North 5.8 mph - N/A   Light Drizzle
12:58 PM 72.3 °F 70.0 °F 92% 29.78 in 8.0 mi Variable 4.6 mph - 0.01 in   Light Drizzle
1:15 PM 71.6 °F 69.8 °F 94% 29.77 in 10.0 mi North 5.8 mph - N/A   Overcast
1:24 PM 71.6 °F 69.8 °F 94% 29.77 in 10.0 mi North 4.6 mph - N/A   Light Drizzle
1:29 PM 71.6 °F 69.8 °F 94% 29.77 in 9.0 mi North 4.6 mph - N/A   Light Drizzle
1:39 PM 71.6 °F 69.8 °F 94% 29.77 in 4.0 mi NNE 3.5 mph - N/A Rain Light Rain
1:52 PM 71.6 °F 69.8 °F 94% 29.77 in 9.0 mi North 3.5 mph - N/A   Overcast
1:58 PM 72.0 °F 70.2 °F 94% 29.78 in 10.0 mi North 2.3 mph - 0.01 in   Overcast
2:34 PM 73.4 °F 69.8 °F 88% 29.76 in 8.0 mi NW 2.3 mph - N/A   Light Drizzle
2:50 PM 71.6 °F 69.8 °F 94% 29.76 in 8.0 mi NNW 2.3 mph - N/A   Overcast
2:55 PM 71.6 °F 69.8 °F 94% 29.76 in 10.0 mi Calm Calm - N/A   Overcast
2:58 PM 72.3 °F 69.8 °F 92% 29.77 in 10.0 mi Calm Calm - 0.00 in   Overcast
3:13 PM 73.4 °F 71.6 °F 94% 29.76 in 10.0 mi West 2.3 mph - N/A   Overcast
3:18 PM 73.4 °F 69.8 °F 88% 29.76 in 10.0 mi West 3.5 mph - N/A   Overcast
3:48 PM 73.4 °F 71.6 °F 94% 29.76 in 10.0 mi West 3.5 mph - N/A   Overcast
3:58 PM 73.4 °F 71.6 °F 94% 29.77 in 10.0 mi Variable 2.3 mph - N/A   Overcast
4:28 PM 73.4 °F 71.6 °F 94% 29.76 in 10.0 mi NW 9.2 mph - N/A   Overcast
4:43 PM 73.4 °F 69.8 °F 88% 29.76 in 10.0 mi NNW 6.9 mph - N/A   Overcast
4:58 PM 74.8 °F 70.0 °F 85% 29.77 in 10.0 mi NW 4.6 mph - N/A   Mostly Cloudy
5:13 PM 75.2 °F 69.8 °F 83% 29.76 in 10.0 mi WNW 6.9 mph - N/A   Scattered Clouds
5:18 PM 75.2 °F 69.8 °F 83% 29.77 in 10.0 mi WNW 5.8 mph - N/A   Mostly Cloudy
5:38 PM 75.2 °F 68.0 °F 78% 29.76 in 10.0 mi NW 5.8 mph - N/A   Scattered Clouds
5:58 PM 75.2 °F 68.7 °F 80% 29.77 in 10.0 mi NW 3.5 mph - N/A   Clear
6:58 PM 73.9 °F 69.6 °F 86% 29.79 in 10.0 mi West 3.5 mph - N/A   Mostly Cloudy
7:58 PM 71.2 °F 69.8 °F 95% 29.81 in 10.0 mi Calm Calm - N/A   Scattered Clouds
8:58 PM 70.5 °F 69.4 °F 96% 29.83 in 10.0 mi Calm Calm - N/A   Mostly Cloudy
9:58 PM 70.0 °F 69.4 °F 98% 29.84 in 10.0 mi Calm Calm - N/A   Clear
10:58 PM 69.6 °F 69.3 °F 99% 29.85 in 10.0 mi Calm Calm - N/A   Clear
11:58 PM 68.9 °F 68.4 °F 98% 29.85 in 10.0 mi NW 2.3 mph - N/A   Clear